Weather History for Montgomery, AL

Change the Weather History Date:

Monday, April 1, 2013

  Actual Average Record
Temperature  
Mean Temperature 66 °F 61 °F  
Max Temperature 78 °F 74 °F 87 °F (1974)
Min Temperature 54 °F 48 °F 28 °F (1987)
Degree Days  
Heating Degree Days 0 5  
Month to date heating degree days 0 5  
Since 1 July heating degree days 1848 2132  
Cooling Degree Days 1 1  
Month to date cooling degree days 1 1  
Year to date cooling degree days 34 30  
Growing Degree Days 19 (Base 50)    
Moisture  
Dew Point 53 °F    
Average Humidity 58    
Maximum Humidity 90    
Minimum Humidity 25    
Precipitation  
Precipitation 0.00 in 0.17 in 2.88 in (1938)
Month to date precipitation 0.00 0.17  
Year to date precipitation 20.14 16.05  
Snow  
Snow 0.00 in 0.00 in - ()
Month to date snowfall 0.0 0.0  
Since 1 July snowfall 0.0 0.4  
Snow Depth 0.00 in    
Sea Level Pressure  
Sea Level Pressure 29.99 in    
Wind  
Wind Speed 6 mph (West)    
Max Wind Speed 14 mph    
Max Gust Speed 21 mph    
Visibility 8 miles    
Events      
T = Trace of Precipitation, MM = Missing Value Source: NWS Daily Summary

Daily Weather History Graph

Daily Weather History Graph

Search for Another Location

Airport:

Trip Planner

Search our weather history database for the weather conditions in past years. The results will help you decide how hot, cold, wet, or windy it might be!

Date:

Astronomy

Apr. 01, 2013 Rise Set
Actual Time 6:33 AM CDT 7:05 PM CDT
Civil Twilight 6:08 AM CDT 7:30 PM CDT
Nautical Twilight 5:39 AM CDT 7:59 PM CDT
Astronomical Twilight 5:10 AM CDT 8:28 PM CDT
Moon No Moon Rise 10:34 AM CDT (4/1)
Length of Visible Light 13h 21m
Length of Day
12h 32m
Waning Gibbous, 67% of the Moon is Illuminated
Apr 1
Waning Gibbous
Apr 2
Last Quarter
Apr 10
New
Apr 18
First Quarter
Apr 25
Full

Hourly Weather History & Observations

Time (CDT) Temp. Dew Point Humidity Pressure Visibility Wind Dir Wind Speed Gust Speed Precip Events Conditions
12:53 AM 63.0 °F 59.0 °F 87% 29.91 in 10.0 mi WSW 3.5 mph - N/A   Overcast
1:40 AM 60.8 °F 57.2 °F 88% 29.91 in 10.0 mi SSW 3.5 mph - N/A   Scattered Clouds
1:53 AM 61.0 °F 57.9 °F 90% 29.90 in 10.0 mi SW 3.5 mph - N/A   Partly Cloudy
2:53 AM 60.1 °F 57.0 °F 90% 29.91 in 8.0 mi SW 3.5 mph - N/A   Scattered Clouds
3:00 AM 60.8 °F 57.2 °F 88% 29.91 in 8.0 mi SW 5.8 mph - N/A   Mostly Cloudy
3:53 AM 60.1 °F 57.9 °F 93% 29.91 in 8.0 mi SW 5.8 mph - N/A   Mostly Cloudy
4:00 AM 60.8 °F 57.2 °F 88% 29.91 in 6.0 mi WSW 5.8 mph - N/A   Mostly Cloudy
4:53 AM 60.1 °F 57.9 °F 93% 29.92 in 6.0 mi SSW 4.6 mph - N/A   Overcast
5:53 AM 60.1 °F 57.9 °F 93% 29.95 in 5.0 mi West 4.6 mph - N/A   Overcast
6:45 AM 60.8 °F 57.2 °F 88% 29.98 in 5.0 mi West 4.6 mph - N/A   Overcast
6:53 AM 60.1 °F 57.9 °F 93% 29.98 in 4.0 mi West 4.6 mph - N/A   Overcast
7:05 AM 60.8 °F 57.2 °F 88% 29.99 in 4.0 mi WSW 3.5 mph - N/A   Overcast
7:53 AM 62.1 °F 59.0 °F 90% 30.00 in 5.0 mi West 4.6 mph - N/A   Overcast
8:20 AM 62.6 °F 59.0 °F 88% 30.01 in 4.0 mi West 4.6 mph - N/A   Overcast
8:34 AM 62.6 °F 59.0 °F 88% 30.01 in 4.0 mi WNW 5.8 mph - N/A   Overcast
8:53 AM 62.1 °F 59.0 °F 90% 30.02 in 4.0 mi NW 6.9 mph - N/A   Overcast
9:14 AM 62.6 °F 59.0 °F 88% 30.03 in 5.0 mi WNW 3.5 mph - N/A   Overcast
9:53 AM 64.9 °F 57.9 °F 78% 30.03 in 10.0 mi WNW 4.6 mph - N/A   Overcast
10:41 AM 69.8 °F 57.2 °F 64% 30.04 in 10.0 mi NW 4.6 mph - N/A   Scattered Clouds
10:53 AM 66.9 °F 57.9 °F 73% 30.03 in 10.0 mi WSW 5.8 mph - N/A   Mostly Cloudy
11:22 AM 71.6 °F 59.0 °F 64% 30.04 in 10.0 mi West 9.2 mph - N/A   Mostly Cloudy
11:53 AM 73.0 °F 57.0 °F 57% 30.03 in 10.0 mi WNW 11.5 mph - N/A   Mostly Cloudy
12:53 PM 75.0 °F 53.1 °F 46% 30.02 in 10.0 mi Variable 5.8 mph - N/A   Mostly Cloudy
1:53 PM 75.9 °F 51.1 °F 42% 30.01 in 10.0 mi WNW 8.1 mph - N/A   Scattered Clouds
2:53 PM 77.0 °F 46.0 °F 33% 30.00 in 10.0 mi West 8.1 mph - N/A   Partly Cloudy
3:53 PM 77.0 °F 42.1 °F 29% 29.99 in 10.0 mi WNW 6.9 mph - N/A   Partly Cloudy
4:53 PM 78.1 °F 42.1 °F 28% 29.98 in 10.0 mi NW 9.2 mph - N/A   Clear
5:53 PM 75.9 °F 37.0 °F 24% 29.98 in 10.0 mi NW 10.4 mph - N/A   Clear
6:53 PM 71.1 °F 43.0 °F 36% 29.99 in 10.0 mi NNW 4.6 mph - N/A   Clear
7:53 PM 66.9 °F 39.0 °F 36% 30.00 in 10.0 mi NW 4.6 mph - N/A   Clear
8:53 PM 63.0 °F 41.0 °F 45% 30.02 in 10.0 mi Calm Calm - N/A   Clear
9:53 PM 62.1 °F 42.1 °F 48% 30.04 in 10.0 mi WNW 5.8 mph - N/A   Clear
10:53 PM 61.0 °F 42.1 °F 50% 30.04 in 10.0 mi NW 3.5 mph - N/A   Clear
11:53 PM 54.0 °F 48.0 °F 80% 30.05 in 10.0 mi Calm Calm - N/A   Clear